• Em Portugal
  • Lista de países
  • Para 7 dias
  • Temperatura da água
  • Mapas de satélite
  • Mapa do tempo
  • Widgets de tempo
  • user-avatar
    Iniciar Sessão

    Previsão horária em Djelfa

    Hoje, 24 Abril, Terça-feira

    Tempo Temperatura Precipitação Vento Pressão Humidade
    00:00 +20°C° 0 mm 8 m/s 665 mmHg 26%
    01:00 +20°C° 0,1 mm 8 m/s 665 mmHg 27%
    02:00 +18°C° 0,1 mm 7 m/s 665 mmHg 29%
    03:00 +18°C° 0,1 mm 7 m/s 665 mmHg 30%
    04:00 +17°C° 0 mm 7 m/s 665 mmHg 31%
    05:00 +17°C° 0 mm 7 m/s 665 mmHg 32%
    06:00 +17°C° 0 mm 7 m/s 665 mmHg 34%
    07:00 +18°C° 0 mm 8 m/s 665 mmHg 32%
    08:00 +21°C° 0 mm 9 m/s 666 mmHg 30%
    09:00 +22°C° 0 mm 9 m/s 666 mmHg 28%
    10:00 +23°C° 0 mm 9 m/s 666 mmHg 26%
    11:00 +26°C° 0 mm 9 m/s 666 mmHg 25%
    12:00 +27°C° 0 mm 9 m/s 666 mmHg 23%
    13:00 +27°C° 0 mm 9 m/s 666 mmHg 24%
    14:00 +27°C° 0 mm 9 m/s 665 mmHg 24%
    15:00 +28°C° 0 mm 9 m/s 664 mmHg 25%
    16:00 +27°C° 0,2 mm 9 m/s 664 mmHg 28%
    17:00 +26°C° 0,2 mm 9 m/s 664 mmHg 31%
    18:00 +24°C° 0,2 mm 9 m/s 663 mmHg 34%
    19:00 +23°C° 0,2 mm 10 m/s 663 mmHg 35%
    20:00 +23°C° 0,2 mm 10 m/s 664 mmHg 37%
    21:00 +22°C° 0,2 mm 10 m/s 664 mmHg 38%
    22:00 +21°C° 0,1 mm 9 m/s 663 mmHg 40%
    23:00 +21°C° 0,1 mm 8 m/s 663 mmHg 42%

    Amanhã, 25 Abril, Quarta-feira

    Tempo Temperatura Precipitação Vento Pressão Humidade
    00:00 +20°C° 0,1 mm 6 m/s 663 mmHg 44%
    01:00 +19°C° 0,1 mm 6 m/s 663 mmHg 48%
    02:00 +19°C° 0,1 mm 5 m/s 663 mmHg 51%
    03:00 +18°C° 0,1 mm 4 m/s 662 mmHg 55%
    04:00 +18°C° 0,9 mm 4 m/s 662 mmHg 58%
    05:00 +17°C° 0,9 mm 4 m/s 663 mmHg 60%
    06:00 +17°C° 0,9 mm 4 m/s 663 mmHg 63%
    07:00 +17°C° 1,4 mm 5 m/s 663 mmHg 59%
    08:00 +17°C° 1,4 mm 5 m/s 663 mmHg 55%
    09:00 +19°C° 1,4 mm 6 m/s 664 mmHg 51%
    10:00 +21°C° 0,1 mm 6 m/s 664 mmHg 48%
    11:00 +22°C° 0,1 mm 7 m/s 664 mmHg 44%
    12:00 +23°C° 0,1 mm 8 m/s 664 mmHg 40%
    13:00 +23°C° 0,3 mm 8 m/s 663 mmHg 42%
    14:00 +22°C° 0,3 mm 9 m/s 663 mmHg 43%
    15:00 +22°C° 0,3 mm 9 m/s 662 mmHg 45%
    16:00 +21°C° 0,1 mm 10 m/s 661 mmHg 46%
    17:00 +19°C° 0,1 mm 10 m/s 661 mmHg 48%
    18:00 +19°C° 0,1 mm 10 m/s 660 mmHg 49%
    19:00 +18°C° 0,6 mm 9 m/s 660 mmHg 55%
    20:00 +16°C° 0,6 mm 9 m/s 660 mmHg 62%
    21:00 +15°C° 0,6 mm 8 m/s 660 mmHg 68%
    22:00 +15°C° 0,1 mm 8 m/s 660 mmHg 72%
    23:00 +14°C° 0,1 mm 7 m/s 660 mmHg 76%

    Depois de amanhã, 26 Abril, Quinta-feira

    Tempo Temperatura Precipitação Vento Pressão Humidade
    00:00 +14°C° 0,1 mm 7 m/s 659 mmHg 80%
    01:00 +12°C° 0 mm 7 m/s 659 mmHg 82%
    02:00 +12°C° 0 mm 7 m/s 659 mmHg 83%
    03:00 +11°C° 0 mm 7 m/s 658 mmHg 84%
    04:00 +11°C° 0,1 mm 7 m/s 658 mmHg 82%
    05:00 +11°C° 0,1 mm 6 m/s 658 mmHg 81%
    06:00 +11°C° 0,1 mm 6 m/s 658 mmHg 79%
    07:00 +13°C° 0 mm 6 m/s 658 mmHg 75%
    08:00 +14°C° 0 mm 6 m/s 659 mmHg 70%
    09:00 +15°C° 0 mm 5 m/s 659 mmHg 66%
    10:00 +16°C° 0,2 mm 6 m/s 659 mmHg 64%
    11:00 +16°C° 0,2 mm 6 m/s 659 mmHg 62%
    12:00 +17°C° 0,2 mm 6 m/s 660 mmHg 60%
    13:00 +17°C° 0,5 mm 7 m/s 659 mmHg 59%
    14:00 +17°C° 0,5 mm 7 m/s 659 mmHg 59%
    15:00 +17°C° 0,5 mm 7 m/s 659 mmHg 59%
    16:00 +16°C° 0,4 mm 8 m/s 659 mmHg 62%
    17:00 +15°C° 0,4 mm 8 m/s 659 mmHg 66%
    18:00 +15°C° 0,4 mm 9 m/s 659 mmHg 69%
    19:00 +13°C° 0 mm 9 m/s 660 mmHg 71%
    20:00 +12°C° 0 mm 10 m/s 660 mmHg 73%
    21:00 +12°C° 0 mm 10 m/s 660 mmHg 75%
    22:00 +11°C° 0 mm 10 m/s 660 mmHg 77%
    23:00 +11°C° 0 mm 10 m/s 660 mmHg 79%

    27 Abril, Sexta-feira

    Tempo Temperatura Precipitação Vento Pressão Humidade
    00:00 +9°C° 0 mm 10 m/s 659 mmHg 81%
    01:00 +9°C° 0,1 mm 10 m/s 659 mmHg 81%
    02:00 +9°C° 0,1 mm 10 m/s 659 mmHg 81%
    03:00 +8°C° 0,1 mm 10 m/s 659 mmHg 81%
    04:00 +8°C° 0,1 mm 10 m/s 659 mmHg 81%
    05:00 +8°C° 0,1 mm 11 m/s 659 mmHg 82%
    06:00 +8°C° 0,1 mm 11 m/s 659 mmHg 83%
    07:00 +9°C° 0 mm 11 m/s 659 mmHg 79%
    08:00 +11°C° 0 mm 10 m/s 660 mmHg 75%
    09:00 +11°C° 0 mm 10 m/s 660 mmHg 71%
    10:00 +13°C° 0 mm 10 m/s 660 mmHg 64%
    11:00 +14°C° 0 mm 10 m/s 661 mmHg 57%
    12:00 +16°C° 0 mm 10 m/s 661 mmHg 51%
    13:00 +17°C° 0 mm 9 m/s 661 mmHg 49%
    14:00 +17°C° 0 mm 9 m/s 661 mmHg 48%
    15:00 +18°C° 0 mm 9 m/s 661 mmHg 47%
    16:00 +17°C° 0 mm 9 m/s 661 mmHg 50%
    17:00 +16°C° 0 mm 8 m/s 661 mmHg 54%
    18:00 +15°C° 0 mm 8 m/s 661 mmHg 57%
    19:00 +14°C° 0 mm 7 m/s 662 mmHg 62%
    20:00 +12°C° 0 mm 7 m/s 662 mmHg 66%
    21:00 +11°C° 0 mm 6 m/s 663 mmHg 70%
    22:00 +12°C° 0 mm 5 m/s 662 mmHg 72%
    23:00 +11°C° 0 mm 4 m/s 662 mmHg 75%

    28 Abril, Sábado

    Tempo Temperatura Precipitação Vento Pressão Humidade
    00:00 +11°C° 0 mm 4 m/s 662 mmHg 77%
    01:00 +11°C° 0 mm 4 m/s 661 mmHg 79%
    02:00 +10°C° 0 mm 3 m/s 661 mmHg 80%
    03:00 +10°C° 0 mm 3 m/s 661 mmHg 81%
    04:00 +10°C° 0 mm 3 m/s 661 mmHg 81%
    05:00 +10°C° 0 mm 3 m/s 661 mmHg 81%
    06:00 +10°C° 0 mm 3 m/s 661 mmHg 80%
    07:00 +12°C° 0 mm 3 m/s 662 mmHg 68%
    08:00 +14°C° 0 mm 3 m/s 663 mmHg 57%
    09:00 +16°C° 0 mm 3 m/s 663 mmHg 45%
    10:00 +18°C° 0 mm 3 m/s 663 mmHg 40%
    11:00 +19°C° 0 mm 2 m/s 663 mmHg 34%
    12:00 +20°C° 0 mm 2 m/s 664 mmHg 29%
    13:00 +21°C° 0 mm 2 m/s 663 mmHg 28%
    14:00 +21°C° 0 mm 2 m/s 663 mmHg 26%
    15:00 +23°C° 0 mm 2 m/s 663 mmHg 25%
    16:00 +23°C° 0 mm 2 m/s 663 mmHg 26%
    17:00 +23°C° 0 mm 2 m/s 663 mmHg 27%
    18:00 +21°C° 0 mm 2 m/s 663 mmHg 28%
    19:00 +20°C° 0 mm 2 m/s 663 mmHg 31%
    20:00 +19°C° 0 mm 2 m/s 664 mmHg 34%
    21:00 +20°C° 0 mm 1 m/s 664 mmHg 37%
    22:00 +19°C° 0 mm 1 m/s 663 mmHg 38%
    23:00 +18°C° 0 mm 2 m/s 663 mmHg 38%

    29 Abril, Domingo

    Tempo Temperatura Precipitação Vento Pressão Humidade
    00:00 +17°C° 0 mm 2 m/s 663 mmHg 38%
    01:00 +17°C° 0 mm 3 m/s 663 mmHg 38%
    02:00 +17°C° 0 mm 3 m/s 663 mmHg 39%
    03:00 +15°C° 0 mm 4 m/s 662 mmHg 39%
    04:00 +16°C° 0,6 mm 3 m/s 663 mmHg 47%
    05:00 +14°C° 0,6 mm 3 m/s 663 mmHg 56%
    06:00 +14°C° 0,6 mm 2 m/s 663 mmHg 64%
    07:00 +15°C° 0,1 mm 2 m/s 664 mmHg 59%
    08:00 +16°C° 0,1 mm 2 m/s 664 mmHg 55%
    09:00 +17°C° 0,1 mm 2 m/s 664 mmHg 50%
    10:00 +19°C° 0,2 mm 3 m/s 665 mmHg 45%
    11:00 +20°C° 0,2 mm 4 m/s 665 mmHg 41%
    12:00 +22°C° 0,2 mm 5 m/s 665 mmHg 36%
    13:00 +21°C° 0,2 mm 5 m/s 665 mmHg 40%
    14:00 +21°C° 0,2 mm 5 m/s 664 mmHg 43%
    15:00 +20°C° 0,2 mm 6 m/s 664 mmHg 47%
    16:00 +18°C° 0,1 mm 7 m/s 663 mmHg 54%
    17:00 +16°C° 0,1 mm 8 m/s 663 mmHg 60%
    18:00 +13°C° 0,1 mm 8 m/s 663 mmHg 66%
    19:00 +12°C° 0,4 mm 8 m/s 664 mmHg 69%
    20:00 +11°C° 0,4 mm 7 m/s 664 mmHg 71%
    21:00 +10°C° 0,4 mm 7 m/s 665 mmHg 73%
    22:00 +10°C° 0,8 mm 6 m/s 665 mmHg 74%
    23:00 +10°C° 0,8 mm 6 m/s 665 mmHg 74%
    Mostrar mais